User: anonymous   Login
Location: Innsbruck
(47.2657°N, 11.3914°E)
Time: 09:10:16
(UTC+01:00)
Language:

FENGYUN 1C DEB - Orbit

View from above orbital plane
View from above orbital plane
View from above satellite
View from above satellite

Ground track
Ground track

The orbit data is extracted from the following two-line orbital elements,

1 31083U 99025BGD 23335.97831785  .00015502  00000-0  50386-2 0  9991
2 31083  98.6487  64.1843 0043537  37.8619  17.5641 14.38334191869959
Epoch (UTC): 01 December 2023 23:28:46
Eccentricity: 0.0043537
inclination: 98.6487°
perigee height: 733 km
apogee height: 795 km
right ascension of ascending node: 64.1843°
argument of perigee: 37.8619°
revolutions per day: 14.38334191
mean anomaly at epoch: 17.5641°
orbit number at epoch: 86995

The dashed part of the orbit path shows where the satellite is in the earth's shadow,  

DLR